Station PNLM4 - 9087096 - Port Inland, MI Image indicating link to RSS feed of recent meteorological observations for station PNLM4


Conditions at PNLM4 as of
(8:30 pm EDT on 04/15/2024)
0030 GMT on 04/16/2024:
     

Click on the graph icon in the table below to see a time series plot of the last five days of that observation.

5-day plot - Wind Direction Wind Direction (WDIR): N ( 350 deg true )
5-day plot - Wind Speed Wind Speed (WSPD): 6.0 kts
5-day plot - Wind Gust Wind Gust (GST): 9.9 kts
5-day plot - Atmospheric Pressure Atmospheric Pressure (PRES):30.07 in
5-day plot - Air Temperature Air Temperature (ATMP): 47.7 °F
5-day plot - Water Temperature Water Temperature (WTMP): 45.3 °F
5-day plot - Wind Chill Wind Chill (CHILL): 44.4 °F
5-day plot - Wind Speed at 10 Meters Wind Speed at 10 meters (WSPD10M): 5.8 kts
5-day plot - Wind Speed at 20 Meters Wind Speed at 20 meters (WSPD20M): 7.8 kts
5-day plot -  Wind Speed, Wind Gust and Atmospheric Pressure Combined plot of Wind Speed, Gust, and Air Pressure
NOS Water Level Observation Network Water Level
Previous observations
TIME
(EDT)
5-day plot - Wind Direction
WDIR
 
5-day plot - Wind Speed
WSPD
kts
5-day plot - Wind Gust
GST
kts
5-day plot - Wave Height
WVHT
ft
5-day plot - Dominant Wave Period
DPD
sec
5-day plot - Average Wave Period
APD
sec
5-day plot - Mean Wave Direction
MWD
 
5-day plot - Atmospheric Pressure
PRES
in
5-day plot - Pressure Tendency
PTDY
in
5-day plot - Air Temperature
ATMP
°F
5-day plot - Water Temperature
WTMP
°F
5-day plot - Dew Point
DEWP
°F
5-day plot - Salinity
SAL
psu
5-day plot - Visibility
VIS
nmi
5-day plot - Tide (above MLLW)
TIDE
ft
2024-04-15 08:24 pm N 6.0 9.9----30.07- 48.0 45.3----
2024-04-15 08:18 pm N 6.0 9.9----30.07-- 45.3----
2024-04-15 08:12 pmNNW 4.1 8.9----30.06-- 45.3----
2024-04-15 08:06 pm N 7.0 12.0----30.06-- 45.3----
2024-04-15 08:00 pmNNW 9.9 18.1----30.06+0.05 49.3 45.3----
2024-04-15 07:54 pm N 9.9 18.1----30.06- 49.5 45.3----
2024-04-15 07:48 pm N 6.0 11.1----30.06- 49.6 45.3----
2024-04-15 07:42 pmNNW 8.0 15.0----30.06- 49.8 45.3----
2024-04-15 07:36 pmNNW 9.9 15.0----30.06- 50.0 45.3----
2024-04-15 07:30 pmNNW 11.1 17.1----30.05- 50.4 45.3----
2024-04-15 07:24 pmNNW 12.0 17.1----30.05- 50.7 45.3----
2024-04-15 07:18 pm N 9.9 14.0----30.05- 51.1 45.3----
2024-04-15 07:12 pmNNW 9.9 17.1----30.05- 51.3 45.3----
2024-04-15 07:06 pmNNW 13.0 19.0----30.05- 51.4 45.3----
2024-04-15 07:00 pmNNW 9.9 15.0----30.05+0.06 51.8 45.3----
2024-04-15 06:54 pmNNW 8.9 14.0----30.04- 52.3 45.3----
2024-04-15 06:48 pm N 11.1 18.1----30.04- 52.2 45.3----
2024-04-15 06:42 pmNNW 13.0 18.1----30.04- 52.2 45.3----
2024-04-15 06:36 pmNNW 13.0 15.9----30.04- 52.9 45.3----
2024-04-15 06:30 pmNNW 11.1 19.0----30.04-- 45.3----
2024-04-15 06:24 pmNNW 15.0 21.0----30.03-- 45.3----
2024-04-15 06:18 pmNNW 11.1 19.0----30.03- 53.2 45.3----
2024-04-15 06:12 pmNNW 15.0 22.9----30.03- 52.9 45.3----
2024-04-15 06:06 pmNNW 12.0 20.0----30.03- 53.1 45.3----
2024-04-15 06:00 pmNNW 17.1 22.9----30.03+0.06 53.2 45.3----
2024-04-15 05:54 pmNNW 14.0 22.9----30.03- 53.4 45.3----
2024-04-15 05:48 pmNNW 14.0 21.0----30.03- 53.4 45.3----
2024-04-15 05:42 pm N 15.0 21.0----30.03- 53.2 45.3----
2024-04-15 05:36 pm N 15.9 22.9----30.03- 53.2 45.3----
2024-04-15 05:30 pm NW 9.9 21.0----30.02- 53.8 45.3----
2024-04-15 05:24 pmNNW 13.0 24.1----30.02- 53.4 45.3----
2024-04-15 05:18 pm NW 15.9 25.1------ 53.8 45.1----
2024-04-15 05:12 pm NW 15.0 21.0------ 54.3 45.1----
2024-04-15 05:06 pmNNW 17.1 22.9------ 54.1 45.1----
2024-04-15 05:00 pmNNW 11.1 21.0----30.01+0.06 55.4 45.1----
2024-04-15 04:54 pmNNW 13.0 21.0----30.01- 55.4 45.1----
2024-04-15 04:48 pmNNW 18.1 26.0----30.00- 54.9 45.1----
2024-04-15 04:42 pmNNW 13.0 21.0----30.00- 55.6 45.1----
2024-04-15 04:36 pm NW 12.0 22.0----30.00- 55.6 45.1----
2024-04-15 04:30 pm N 13.0 21.0----30.00- 55.8 45.1----
2024-04-15 04:24 pmNNW 11.1 19.0----29.99- 56.1 45.1----
2024-04-15 04:18 pmNNW 13.0 22.0----29.99- 56.1 45.1----
2024-04-15 04:12 pmNNW 17.1 22.9----29.99- 55.4 45.1----
2024-04-15 04:06 pmNNW 15.0 26.0----29.99- 55.4 45.0----
2024-04-15 04:00 pm N 14.0 21.0----29.98+0.05 56.3 45.0----
2024-04-15 03:54 pm N 12.0 20.0----29.98- 55.9 45.0----
2024-04-15 03:48 pmNNW 11.1 15.9----29.98- 55.8 45.0----
2024-04-15 03:42 pmNNW 8.9 22.0----29.98- 57.0 45.0----
2024-04-15 03:36 pm N 11.1 18.1----29.98- 55.8 45.0----
2024-04-15 03:30 pmNNW 14.0 20.0----29.98- 55.8 45.0----
2024-04-15 03:24 pm NW 15.0 19.0----29.97- 55.9 45.0----
2024-04-15 03:18 pm N 11.1 17.1----29.97- 56.3 45.0----
2024-04-15 03:12 pmNNW 13.0 18.1----29.97- 55.8 45.0----
2024-04-15 03:06 pmNNW 12.0 15.0----29.97- 55.8 45.0----
2024-04-15 03:00 pmNNW 5.1 14.0----29.97+0.04 51.4 45.0----
2024-04-15 02:54 pm S 4.1 6.0----29.97- 45.5 45.0----
2024-04-15 02:48 pm SE 2.9 4.1----29.97- 45.0 45.0----
2024-04-15 02:42 pmESE 2.9 7.0----29.96- 43.5 44.8----
2024-04-15 02:36 pm S 5.1 7.0----29.96- 43.5 44.8----
2024-04-15 02:30 pmSSE 2.9 6.0----29.96- 43.7 44.8----
2024-04-15 02:24 pmSSE 4.1 8.0----29.96- 42.8 44.8----
2024-04-15 02:18 pm S 5.1 7.0----29.96- 43.0 44.8----
2024-04-15 02:12 pm S 2.9 5.1----29.95- 44.8 44.8----
2024-04-15 02:06 pmSSE 4.1 5.1----29.95- 44.1 44.8----
2024-04-15 02:00 pm S 2.9 5.1----29.95+0.03 45.3 44.8----
2024-04-15 01:54 pm S 4.1 5.1----29.95- 43.0 44.8----
2024-04-15 01:48 pm S 4.1 5.1----29.95- 43.3 44.8----
2024-04-15 01:42 pm E 2.9 4.1----29.94- 44.4 44.8----
2024-04-15 01:36 pm SE 2.9 8.0----29.94- 42.8 44.8----
2024-04-15 01:30 pm S 5.1 6.0----29.94- 43.2 44.8----
2024-04-15 01:24 pm S 1.9 2.9----29.94- 43.9 44.8----
2024-04-15 01:18 pm S 1.9 5.1----29.94- 43.5 44.8----
2024-04-15 01:12 pm S 4.1 6.0----29.94- 43.7 44.6----
2024-04-15 01:06 pm S 6.0 8.9----29.94- 43.5 44.6----
2024-04-15 01:00 pmSSW 7.0 8.0----29.93+0.02 43.2 44.6----
2024-04-15 12:54 pm S 7.0 8.9----29.93- 44.2 44.6----
2024-04-15 12:48 pmSSW 8.0 8.9----29.93- 45.1 44.6----
2024-04-15 12:42 pmSSW 7.0 8.0----29.93- 43.5 44.6----
2024-04-15 12:36 pmSSW 5.1 7.0----29.93- 43.5 44.6----
2024-04-15 12:30 pmSSW 6.0 8.0----29.93- 43.3 44.6----
2024-04-15 12:24 pm S 7.0 8.0----29.93- 43.9 44.6----
2024-04-15 12:18 pmSSW 7.0 8.9----29.93- 43.3 44.6----
2024-04-15 12:12 pmSSW 7.0 8.0----29.93- 43.2 44.6----
2024-04-15 12:06 pmSSW 7.0 8.0----29.93- 43.2 44.6----
2024-04-15 12:00 pmSSW 7.0 8.0----29.93+0.01 42.4 44.6----
2024-04-15 11:54 amSSW 8.0 8.9----29.93- 43.0 44.6----
2024-04-15 11:48 amSSW 8.0 8.9----29.93- 42.3 44.6----
2024-04-15 11:42 amSSW 7.0 8.9----29.93- 42.4 44.6----
2024-04-15 11:36 amSSW 8.0 9.9----29.93- 42.3 44.6----
2024-04-15 11:30 am S 8.0 9.9----29.92- 42.8 44.6----
2024-04-15 11:24 amSSW 8.0 8.9----29.92- 42.1 44.6----
2024-04-15 11:18 am S 7.0 8.9----29.93- 43.0 44.6----
2024-04-15 11:12 amSSW 6.0 7.0----29.92- 43.7 44.6----
2024-04-15 11:06 amSSW 5.1 6.0----29.92- 44.4 44.6----
2024-04-15 11:00 amSSW 6.0 6.0----29.92+0.01 42.8 44.6----
2024-04-15 10:54 amSSW 6.0 7.0----29.92- 42.8 44.6----
2024-04-15 10:48 amSSW 5.1 7.0----29.92- 43.0 44.6----
2024-04-15 10:42 amSSW 5.1 6.0----29.92- 43.5 44.6----
2024-04-15 10:36 amSSW 6.0 6.0----29.91- 43.0 44.6----
2024-04-15 10:30 amSSW 5.1 5.1----29.91-- 44.6----
2024-04-15 10:24 amSSW 5.1 6.0----29.91-- 44.6----
2024-04-15 10:18 amSSW 5.1 6.0----29.91- 42.6 44.6----
2024-04-15 10:12 amSSW 4.1 5.1----29.91- 42.4 44.6----
2024-04-15 10:06 amSSW 5.1 6.0----29.91- 42.8 44.6----
2024-04-15 10:00 amSSW 6.0 6.0----29.91+0.03 42.4 44.6----
2024-04-15 09:54 amSSW 5.1 6.0----29.91- 44.2 44.6----
2024-04-15 09:48 amSSW 5.1 6.0----29.91- 43.9 44.6----
2024-04-15 09:42 am SW 4.1 4.1----29.91- 45.0 44.6----
2024-04-15 09:36 amWSW 2.9 2.9----29.91- 45.5 44.6----
2024-04-15 09:30 amSSW 1.0 1.9----29.91- 44.8 44.6----
2024-04-15 09:24 am SW 1.0 1.9----29.91- 45.5 44.6----
2024-04-15 09:18 amSSW 1.0 2.9----29.92- 45.0 44.6----
2024-04-15 09:12 am W 2.9 4.1----29.92- 44.8 44.6----
2024-04-15 09:06 am W 2.9 4.1----29.92- 44.6 44.6----
2024-04-15 09:00 am W 1.9 2.9----29.92+0.05 43.5 44.6----
2024-04-15 08:54 am SW 1.9 2.9----29.92- 43.0 44.6----
2024-04-15 08:48 amWSW 1.0 1.0----29.92- 43.5 44.6----
2024-04-15 08:42 am W 1.0 1.9----29.92- 43.7 44.6----
2024-04-15 08:36 am W 1.9 1.9----29.92- 43.2 44.6----
2024-04-15 08:30 amWSW 1.9 1.9----29.92- 43.2 44.6----
2024-04-15 08:24 am W 1.9 1.9----29.91- 44.4 44.6----
2024-04-15 08:18 amWNW 1.9 2.9----29.91- 43.5 44.6----
2024-04-15 08:12 amWSW 2.9 2.9----29.91- 41.9 44.6----
2024-04-15 08:06 am W 1.9 1.9----29.91- 41.7 44.6----
2024-04-15 08:00 am W 1.0 1.9----29.91+0.05 41.7 44.6----
2024-04-15 07:54 amWSW 1.9 1.9----29.90- 40.6 44.6----
2024-04-15 07:48 am- 0.0 1.0----29.90- 40.1 44.6----
2024-04-15 07:42 am- 0.0 0.0----29.90- 40.5 44.6----
2024-04-15 07:36 am- 0.0 1.0----29.89- 40.1 44.6----
2024-04-15 07:30 am- 0.0 1.9----29.89- 40.6 44.6----
2024-04-15 07:24 amWNW 1.0 4.1----29.89- 40.6 44.6----
2024-04-15 07:18 am W 2.9 4.1----29.89- 40.6 44.6----
2024-04-15 07:12 am W 1.9 4.1----29.89- 40.6 44.6----
2024-04-15 07:06 amWNW 1.0 2.9----29.89- 40.5 44.6----
2024-04-15 07:00 am W 2.9 5.1----29.88+0.04 40.6 44.6----
2024-04-15 06:54 am W 2.9 4.1----29.88- 40.5 44.8----
2024-04-15 06:48 amWNW 1.9 2.9----29.88- 40.5 44.6----
2024-04-15 06:42 amWNW 2.9 5.1----29.88- 41.2 44.6----
2024-04-15 06:36 am W 4.1 5.1----29.88- 41.4 44.6----
2024-04-15 06:30 am W 4.1 4.1----29.88- 41.4 44.8----
2024-04-15 06:24 am W 4.1 4.1----29.88- 41.4 44.8----
2024-04-15 06:18 am W 4.1 5.1----29.87- 41.5 44.8----
2024-04-15 06:12 amWSW 4.1 4.1----29.87- 41.4 44.8----
2024-04-15 06:06 am W 2.9 4.1----29.87- 40.6 44.8----
2024-04-15 06:00 amWNW 1.9 2.9----29.87+0.04 40.5 44.8----
2024-04-15 05:54 am W 1.9 2.9----29.87- 40.3 44.8----
2024-04-15 05:48 am W 1.9 2.9----29.87- 40.5 44.8----
2024-04-15 05:42 am W 1.9 2.9----29.87- 40.5 44.8----
2024-04-15 05:36 am W 1.9 2.9----29.87- 40.6 44.8----
2024-04-15 05:30 am W 2.9 4.1----29.86- 40.5 44.8----
2024-04-15 05:24 am W 2.9 4.1----29.86- 40.3 44.8----
2024-04-15 05:18 am W 4.1 5.1----29.86- 40.5 44.8----
2024-04-15 05:12 am W 4.1 5.1----29.86- 40.1 44.8----
2024-04-15 05:06 amWNW 4.1 5.1----29.86- 39.2 44.8----
2024-04-15 05:00 amWNW 2.9 4.1----29.86+0.03 38.3 44.8----
2024-04-15 04:54 amWNW 2.9 2.9----29.85- 38.7 44.8----
2024-04-15 04:48 amWNW 2.9 2.9----29.86- 38.8 44.8----
2024-04-15 04:42 amWNW 1.9 2.9----29.85- 39.2 44.8----
2024-04-15 04:36 am W 1.9 5.1----29.85- 39.2 44.8----
2024-04-15 04:30 am W 2.9 4.1----29.85- 38.8 44.8----
2024-04-15 04:24 amWNW 2.9 4.1----29.85- 37.4 44.8----
2024-04-15 04:18 am NW 1.9 2.9----29.85- 37.4 44.8----
2024-04-15 04:12 amNNW 2.9 2.9----29.85- 36.3 44.8----
2024-04-15 04:06 am NW 1.9 2.9----29.84- 37.4 44.8----
2024-04-15 04:00 am W 1.9 1.9----29.84+0.02 37.2 44.8----
2024-04-15 03:54 amSSW 1.0 1.0----29.84- 36.9 44.8----
2024-04-15 03:48 am- 0.0 2.9----29.84- 36.5 44.8----
2024-04-15 03:42 amWNW 1.9 2.9----29.84- 36.9 44.8----
2024-04-15 03:36 amWNW 1.9 2.9----29.84- 36.3 44.8----
2024-04-15 03:30 am NW 1.9 1.9----29.84- 36.3 44.8----
2024-04-15 03:24 amNNW 1.9 2.9----29.83- 37.0 44.8----
2024-04-15 03:18 am N 1.9 2.9----29.83- 36.1 44.8----
2024-04-15 03:12 amNNW 2.9 4.1----29.83- 36.5 44.8----
2024-04-15 03:06 amNNW 2.9 4.1----29.83- 36.9 44.8----
2024-04-15 03:00 am N 1.9 2.9----29.83+0.01 36.5 44.8----
2024-04-15 02:54 am N 2.9 2.9----29.83- 35.8 44.8----
2024-04-15 02:48 am NW 1.9 1.9----29.83- 37.8 44.8----
2024-04-15 02:42 am W 1.0 1.0----29.83- 37.9 44.8----
2024-04-15 02:36 am- 0.0 1.9----29.83- 38.1 44.8----
2024-04-15 02:30 am N 1.9 2.9----29.83- 38.1 44.8----
2024-04-15 02:24 am NW 2.9 4.1----29.83- 39.9 44.8----
2024-04-15 02:18 am W 2.9 4.1----29.83- 40.6 44.8----
2024-04-15 02:12 amWSW 4.1 5.1----29.83- 41.0 44.8----
2024-04-15 02:06 amWSW 4.1 5.1----29.83- 40.6 44.8----
2024-04-15 02:00 am SW 2.9 5.1----29.83+0.00 40.3 44.8----
2024-04-15 01:54 am W 4.1 5.1----29.83- 39.4 44.8----
2024-04-15 01:48 am W 4.1 5.1----29.83- 38.5 44.8----
2024-04-15 01:42 am- 0.0 1.9----29.83- 37.4 44.8----
2024-04-15 01:36 amNNW 1.9 2.9----29.82- 37.6 44.8----
2024-04-15 01:30 am N 2.9 2.9----29.82- 37.8 44.8----
2024-04-15 01:24 am NW 1.0 2.9----29.82- 37.9 44.8----
2024-04-15 01:18 amNNW 1.9 2.9----29.82- 37.6 44.8----
2024-04-15 01:12 am N 2.9 4.1----29.82- 37.2 44.8----
2024-04-15 01:06 am N 4.1 4.1----29.82- 37.9 44.8----
2024-04-15 01:00 am N 4.1 4.1----29.82+0.00 37.9 44.8----
2024-04-15 12:54 am N 4.1 5.1----29.82- 38.1 44.8----
2024-04-15 12:48 am N 2.9 4.1----29.82- 38.5 44.8----
2024-04-15 12:42 am N 2.9 4.1----29.82- 38.5 44.8----
2024-04-15 12:36 am N 4.1 5.1----29.82- 38.3 44.8----
2024-04-15 12:30 am N 4.1 5.1----29.82- 39.2 44.8----
2024-04-15 12:24 am N 4.1 4.1----29.82- 39.2 44.8----
2024-04-15 12:18 amNNW 4.1 5.1----29.82- 39.4 44.8----
2024-04-15 12:12 am N 2.9 5.1----29.82- 39.6 44.8----
2024-04-15 12:06 am N 4.1 5.1----29.82- 39.4 44.8----
2024-04-15 12:00 am N 4.1 5.1----29.82+0.02 39.4 44.8----
2024-04-14 11:54 pm N 4.1 5.1----29.82- 39.0 44.8----
2024-04-14 11:48 pm N 4.1 5.1----29.82- 39.6 44.8----
2024-04-14 11:42 pm N 4.1 5.1----29.82- 39.7 44.8----
2024-04-14 11:36 pm N 4.1 5.1----29.82- 40.1 44.8----
2024-04-14 11:30 pm N 4.1 5.1----29.83- 40.5 44.8----
2024-04-14 11:24 pm N 4.1 5.1----29.83- 40.6 44.8----
2024-04-14 11:18 pm N 4.1 5.1----29.83- 41.0 44.8----
2024-04-14 11:12 pm N 4.1 6.0----29.83- 41.2 44.8----
2024-04-14 11:06 pm N 5.1 6.0----29.83- 41.5 44.8----
2024-04-14 11:00 pm N 5.1 7.0----29.83+0.06 41.7 44.8----
2024-04-14 10:54 pm N 5.1 8.0----29.83- 41.9 44.8----
2024-04-14 10:48 pmNNW 5.1 8.9----29.83- 42.3 44.8----
2024-04-14 10:42 pmNNW 7.0 8.9----29.83- 42.4 44.8----
2024-04-14 10:36 pmNNW 7.0 8.9----29.83- 42.8 44.8----
2024-04-14 10:30 pmNNW 6.0 9.9----29.83- 43.2 44.8----
2024-04-14 10:24 pmNNW 7.0 9.9----29.83- 43.2 44.8----
2024-04-14 10:18 pmNNW 6.0 9.9----29.83- 43.3 45.0----
2024-04-14 10:12 pmNNW 7.0 8.9----29.82- 43.7 45.0----
2024-04-14 10:06 pmNNW 6.0 8.9----29.82- 43.9 45.0----
2024-04-14 10:00 pmNNW 5.1 7.0----29.82+0.08 44.1 45.0----
2024-04-14 09:54 pmNNW 6.0 8.9----29.82- 44.8 45.0----
2024-04-14 09:48 pmNNW 5.1 6.0----29.82- 45.0 45.0----
2024-04-14 09:42 pmNNW 5.1 7.0----29.82- 45.0 45.0----
2024-04-14 09:36 pm N 6.0 8.9----29.82- 45.5 45.0----
2024-04-14 09:30 pmNNW 7.0 9.9----29.82- 45.9 45.0----
2024-04-14 09:24 pm N 7.0 11.1----29.82- 46.2 45.0----
2024-04-14 09:18 pmNNW 5.1 8.9----29.81- 46.2 45.0----
2024-04-14 09:12 pmNNW 5.1 7.0----29.81- 46.6 45.0----
2024-04-14 09:06 pmNNW 4.1 7.0----29.80- 46.8 45.0----
2024-04-14 09:00 pmNNW 5.1 9.9----29.80+0.06 47.3 45.0----
2024-04-14 08:54 pmNNW 5.1 8.9----29.80- 47.7 45.0----